Time,TemperatureF,DewpointF,PressureIn,WindDirection,WindDirectionDegrees,WindSpeedMPH,WindSpeedGustMPH,Humidity,HourlyPrecipIn,Conditions,Clouds,dailyrainin,SolarRadiationWatts/m^2,SoftwareType,DateUTC
2013-06-22 09:28:00,64.2,62.7,29.99,NE,56,0.0,0.0,95,0.19,,,0.14,47.00,VWS V14.01,2013-06-22 14:28:00,
2013-06-22 09:29:00,64.2,62.7,29.99,NE,56,0.0,0.0,95,0.19,,,0.14,47.00,VWS V14.01,2013-06-22 14:29:00,
2013-06-22 09:34:00,64.2,62.7,29.89,NE,56,0.0,0.0,95,0.00,,,0.14,69.00,VWS V14.01,2013-06-22 14:34:00,
2013-06-22 09:39:00,64.3,63.1,29.89,NE,56,0.0,0.0,96,0.00,,OVC007,0.14,69.00,VWS V14.01,2013-06-22 14:39:00,
2013-06-22 09:44:00,64.3,63.1,29.89,NE,56,0.0,0.0,96,0.00,,OVC018,0.14,65.00,VWS V14.01,2013-06-22 14:44:00,
2013-06-22 09:49:00,64.4,63.2,29.89,NE,56,0.0,0.0,96,0.00,,OVC018,0.14,114.00,VWS V14.01,2013-06-22 14:49:00,
2013-06-22 09:54:00,64.6,63.4,29.88,NNE,19,0.0,0.0,96,0.00,,OVC018,0.14,128.00,VWS V14.01,2013-06-22 14:54:00,
2013-06-22 09:59:00,64.7,63.5,29.88,ESE,113,0.0,0.0,96,0.00,,OVC018,0.14,181.00,VWS V14.01,2013-06-22 14:59:00,
2013-06-22 10:04:00,64.8,63.3,29.88,SE,131,0.0,0.0,95,0.00,,OVC018,0.14,200.00,VWS V14.01,2013-06-22 15:04:00,
2013-06-22 10:09:00,65.2,64.0,29.87,East,91,1.0,1.0,96,0.00,,OVC018,0.14,271.00,VWS V14.01,2013-06-22 15:09:00,
2013-06-22 10:14:00,65.7,64.5,29.88,ESE,122,1.0,2.0,96,0.00,,OVC018,0.14,271.00,VWS V14.01,2013-06-22 15:14:00,
2013-06-22 10:19:00,66.0,64.5,29.88,SE,142,1.0,1.0,95,0.00,,OVC018,0.14,181.00,VWS V14.01,2013-06-22 15:19:00,
2013-06-22 10:24:00,66.1,64.3,29.88,ESE,109,0.0,0.0,94,0.00,,OVC018,0.14,195.00,VWS V14.01,2013-06-22 15:24:00,
2013-06-22 10:29:00,66.1,64.3,29.87,ESE,117,3.0,3.0,94,0.00,,OVC018,0.14,169.00,VWS V14.01,2013-06-22 15:29:00,
2013-06-22 10:34:00,66.1,64.3,29.87,ESE,116,3.0,3.0,94,0.00,,OVC018,0.14,142.00,VWS V14.01,2013-06-22 15:34:00,
2013-06-22 10:39:00,66.3,64.5,29.87,ESE,107,0.0,0.0,94,0.00,,OVC018,0.14,193.00,VWS V14.01,2013-06-22 15:39:00,
2013-06-22 10:45:00,66.6,64.8,29.87,South,178,2.0,3.0,94,0.00,,OVC018,0.14,186.00,VWS V14.01,2013-06-22 15:45:00,
2013-06-22 10:50:00,66.6,64.5,29.87,SSE,167,3.0,3.0,93,0.00,,OVC018,0.14,216.00,VWS V14.01,2013-06-22 15:50:00,
2013-06-22 10:55:00,66.8,65.0,29.87,SE,139,1.0,1.0,94,0.00,,OVC018,0.14,225.00,VWS V14.01,2013-06-22 15:55:00,
2013-06-22 11:00:00,67.1,65.3,29.87,ESE,119,0.0,0.0,94,0.00,,BKN016,0.14,229.00,VWS V14.01,2013-06-22 16:00:00,
2013-06-22 11:05:00,67.3,65.2,29.87,SE,134,0.0,0.0,93,0.00,,BKN016,0.14,204.00,VWS V14.01,2013-06-22 16:05:00,
2013-06-22 11:10:00,67.3,64.9,29.86,SE,133,2.0,2.0,92,0.00,,BKN016,0.14,202.00,VWS V14.01,2013-06-22 16:10:00,
2013-06-22 11:15:00,67.5,65.1,29.86,East,90,1.0,1.0,92,0.00,,SCT016,0.14,209.00,VWS V14.01,2013-06-22 16:15:00,
2013-06-22 11:20:00,67.6,65.2,29.86,East,91,0.0,0.0,92,0.00,,SCT016,0.14,227.00,VWS V14.01,2013-06-22 16:20:00,
2013-06-22 11:25:00,67.8,65.1,29.86,East,90,0.0,1.0,91,0.00,,SCT016,0.14,206.00,VWS V14.01,2013-06-22 16:25:00,
2013-06-22 11:30:00,67.9,65.2,29.85,SE,130,0.0,0.0,91,0.00,,SCT016,0.14,220.00,VWS V14.01,2013-06-22 16:30:00,
2013-06-22 11:35:00,68.1,65.4,29.85,NNE,22,0.0,0.0,91,0.00,,SCT016,0.14,232.00,VWS V14.01,2013-06-22 16:35:00,
2013-06-22 11:46:00,68.2,65.5,29.85,SE,136,4.0,4.0,91,0.00,,SCT016,0.14,167.00,VWS V14.01,2013-06-22 16:46:00,
2013-06-22 11:51:00,68.2,65.2,29.85,ESE,115,0.0,0.0,90,0.00,,SCT016,0.14,158.00,VWS V14.01,2013-06-22 16:51:00,
2013-06-22 11:56:00,68.2,65.2,29.84,ESE,117,0.0,0.0,90,0.00,,SCT016,0.14,169.00,VWS V14.01,2013-06-22 16:56:00,
2013-06-22 12:01:00,68.3,65.6,29.84,NE,38,0.0,1.0,91,0.00,,SCT016,0.14,250.00,VWS V14.01,2013-06-22 17:01:00,
2013-06-22 12:06:00,68.5,65.8,29.84,ESE,112,2.0,3.0,91,0.00,,OVC035,0.14,302.00,VWS V14.01,2013-06-22 17:06:00,
2013-06-22 12:21:00,69.1,66.1,29.83,SE,146,5.0,5.0,90,0.00,,OVC035,0.14,246.00,VWS V14.01,2013-06-22 17:21:00,
2013-06-22 12:26:00,69.0,65.6,29.83,ESE,113,3.0,3.0,89,0.00,,OVC035,0.14,251.00,VWS V14.01,2013-06-22 17:26:00,
2013-06-22 12:31:00,69.0,65.6,29.83,SE,136,2.0,3.0,89,0.00,,OVC035,0.14,232.00,VWS V14.01,2013-06-22 17:31:00,
2013-06-22 12:36:00,68.9,65.5,29.83,SSE,165,2.0,2.0,89,0.00,,OVC035,0.14,211.00,VWS V14.01,2013-06-22 17:36:00,
2013-06-22 12:41:00,69.0,65.9,29.82,SE,142,1.0,2.0,90,0.00,,OVC035,0.14,171.00,VWS V14.01,2013-06-22 17:41:00,
2013-06-22 12:46:00,69.1,66.1,29.83,SSE,149,2.0,2.0,90,0.00,,OVC035,0.14,158.00,VWS V14.01,2013-06-22 17:46:00,
2013-06-22 12:51:00,68.9,65.8,29.83,ENE,72,0.0,2.0,90,0.00,,OVC035,0.14,123.00,VWS V14.01,2013-06-22 17:51:00,
2013-06-22 12:56:00,68.9,65.8,29.82,SE,136,2.0,2.0,90,0.00,,OVC035,0.14,169.00,VWS V14.01,2013-06-22 17:56:00,
2013-06-22 13:01:00,68.8,65.8,29.83,SE,134,1.0,1.0,90,0.00,,OVC035,0.14,186.00,VWS V14.01,2013-06-22 18:01:00,
2013-06-22 13:06:00,69.0,65.9,29.82,ENE,69,0.0,1.0,90,0.00,,SCT110,0.14,183.00,VWS V14.01,2013-06-22 18:06:00,
2013-06-22 13:12:00,69.1,66.1,29.83,ENE,74,1.0,2.0,90,0.00,,SCT110,0.14,153.00,VWS V14.01,2013-06-22 18:12:00,
2013-06-22 13:17:00,69.1,66.1,29.82,ESE,117,0.0,0.0,90,0.00,,SCT110,0.14,171.00,VWS V14.01,2013-06-22 18:17:00,
2013-06-22 13:22:00,69.2,66.2,29.83,East,85,1.0,2.0,90,0.00,,SCT110,0.14,200.00,VWS V14.01,2013-06-22 18:22:00,
2013-06-22 13:27:00,69.3,66.2,29.82,SE,142,4.0,4.0,90,0.00,,SCT110,0.14,206.00,VWS V14.01,2013-06-22 18:27:00,
2013-06-22 13:33:00,69.5,66.4,29.82,ESE,109,3.0,3.0,90,0.00,,SCT110,0.14,248.00,VWS V14.01,2013-06-22 18:33:00,
2013-06-22 13:38:00,69.7,66.6,29.82,SE,141,1.0,2.0,90,0.00,,SCT110,0.14,257.00,VWS V14.01,2013-06-22 18:38:00,
2013-06-22 13:43:00,69.9,66.5,29.83,ESE,103,3.0,3.0,89,0.00,,SCT110,0.14,221.00,VWS V14.01,2013-06-22 18:43:00,
2013-06-22 13:48:00,70.0,66.3,29.83,SE,136,0.0,2.0,88,0.00,,SCT110,0.14,206.00,VWS V14.01,2013-06-22 18:48:00,
2013-06-22 13:53:00,70.2,66.8,29.83,South,169,1.0,3.0,89,0.00,,SCT110,0.14,248.00,VWS V14.01,2013-06-22 18:53:00,
2013-06-22 13:58:00,70.3,66.9,29.83,SSE,167,4.0,5.0,89,0.00,,SCT110,0.14,274.00,VWS V14.01,2013-06-22 18:58:00,
2013-06-22 14:03:00,70.4,66.7,29.83,SE,134,2.0,3.0,88,0.00,,BKN120,0.14,278.00,VWS V14.01,2013-06-22 19:03:00,
2013-06-22 14:08:00,70.5,66.8,29.83,NE,51,0.0,1.0,88,0.00,,BKN120,0.14,301.00,VWS V14.01,2013-06-22 19:08:00,
2013-06-22 14:13:00,70.7,66.7,29.83,SSE,148,1.0,1.0,87,0.00,,BKN120,0.14,323.00,VWS V14.01,2013-06-22 19:13:00,
2013-06-22 14:18:00,70.7,67.0,29.83,ESE,118,3.0,4.0,88,0.00,,BKN120,0.14,353.00,VWS V14.01,2013-06-22 19:18:00,
2013-06-22 14:23:00,71.1,67.4,29.82,SE,143,5.0,5.0,88,0.00,,BKN120,0.14,476.00,VWS V14.01,2013-06-22 19:23:00,
2013-06-22 14:28:00,71.3,67.2,29.83,SE,141,1.0,2.0,87,0.00,,BKN120,0.14,552.00,VWS V14.01,2013-06-22 19:28:00,
2013-06-22 14:33:00,72.0,68.3,29.82,SE,132,2.0,3.0,88,0.00,,BKN120,0.14,710.00,VWS V14.01,2013-06-22 19:33:00,
2013-06-22 14:38:00,72.5,68.4,29.82,SSE,158,3.0,4.0,87,0.00,,BKN120,0.14,545.00,VWS V14.01,2013-06-22 19:38:00,
2013-06-22 14:43:00,72.4,67.6,29.82,SE,136,2.0,2.0,85,0.00,,BKN120,0.14,388.00,VWS V14.01,2013-06-22 19:43:00,
2013-06-22 14:48:00,72.4,67.6,29.82,SSE,161,4.0,4.0,85,0.00,,BKN120,0.14,362.00,VWS V14.01,2013-06-22 19:48:00,
2013-06-22 14:53:00,72.2,67.8,29.82,SSE,166,2.0,2.0,86,0.00,,BKN120,0.14,457.00,VWS V14.01,2013-06-22 19:53:00,
2013-06-22 14:58:00,72.9,68.8,29.82,South,169,6.0,6.0,87,0.00,,BKN120,0.14,737.00,VWS V14.01,2013-06-22 19:58:00,
2013-06-22 15:03:00,73.5,68.4,29.81,South,171,5.0,5.0,84,0.00,,OVC110,0.14,1035.00,VWS V14.01,2013-06-22 20:03:00,
2013-06-22 15:08:00,74.0,68.9,29.81,SSE,157,2.0,6.0,84,0.00,,OVC110,0.14,698.00,VWS V14.01,2013-06-22 20:08:00,
2013-06-22 15:13:00,73.9,69.1,29.81,SSE,148,3.0,3.0,85,0.00,,OVC110,0.14,745.00,VWS V14.01,2013-06-22 20:13:00,
2013-06-22 15:18:00,74.1,68.6,29.81,ENE,61,4.0,4.0,83,0.00,,OVC110,0.14,427.00,VWS V14.01,2013-06-22 20:18:00,
2013-06-22 15:23:00,73.9,68.1,29.81,ENE,59,3.0,3.0,82,0.00,,OVC110,0.14,404.00,VWS V14.01,2013-06-22 20:23:00,
2013-06-22 15:28:00,73.6,67.8,29.81,NE,51,1.0,1.0,82,0.00,,OVC110,0.14,410.00,VWS V14.01,2013-06-22 20:28:00,
2013-06-22 15:33:00,73.5,68.0,29.81,NE,51,1.0,2.0,83,0.00,,OVC110,0.14,392.00,VWS V14.01,2013-06-22 20:33:00,
2013-06-22 15:38:00,73.7,67.9,29.81,SSW,194,2.0,3.0,82,0.00,,OVC110,0.14,448.00,VWS V14.01,2013-06-22 20:38:00,
2013-06-22 15:43:00,74.1,68.3,29.81,SSE,153,3.0,3.0,82,0.00,,OVC110,0.14,441.00,VWS V14.01,2013-06-22 20:43:00,
2013-06-22 15:48:00,74.1,67.9,29.82,ESE,120,0.0,1.0,81,0.00,,OVC110,0.14,520.00,VWS V14.01,2013-06-22 20:48:00,
2013-06-22 15:53:00,74.2,67.6,29.81,NE,51,1.0,2.0,80,0.00,,OVC110,0.14,443.00,VWS V14.01,2013-06-22 20:53:00,
2013-06-22 15:58:00,74.2,68.0,29.81,East,93,1.0,1.0,81,0.00,,OVC110,0.14,359.00,VWS V14.01,2013-06-22 20:58:00,
2013-06-22 16:03:00,74.2,68.0,29.81,SE,139,1.0,1.0,81,0.00,,BKN027,0.14,397.00,VWS V14.01,2013-06-22 21:03:00,
2013-06-22 16:08:00,74.7,68.8,29.81,NNE,29,4.0,4.0,82,0.00,,BKN027,0.14,468.00,VWS V14.01,2013-06-22 21:08:00,
2013-06-22 16:13:00,74.6,67.7,29.81,ENE,64,0.0,0.0,79,0.00,,BKN027,0.14,366.00,VWS V14.01,2013-06-22 21:13:00,
2013-06-22 16:18:00,74.6,68.4,29.81,NE,42,2.0,4.0,81,0.00,,BKN027,0.14,517.00,VWS V14.01,2013-06-22 21:18:00,
2013-06-22 16:23:00,74.7,69.2,29.81,SSE,156,1.0,1.0,83,0.00,,BKN027,0.14,352.00,VWS V14.01,2013-06-22 21:23:00,
2013-06-22 16:29:00,74.7,68.8,29.81,NE,40,1.0,1.0,82,0.00,,BKN027,0.14,408.00,VWS V14.01,2013-06-22 21:29:00,
2013-06-22 16:34:00,74.9,68.3,29.81,SE,142,0.0,1.0,80,0.00,,BKN027,0.14,480.00,VWS V14.01,2013-06-22 21:34:00,
2013-06-22 16:39:00,74.7,67.4,29.81,East,90,0.0,0.0,78,0.00,,BKN027,0.14,265.00,VWS V14.01,2013-06-22 21:39:00,
2013-06-22 16:44:00,74.4,67.8,29.80,NNE,21,2.0,2.0,80,0.00,,FEW029,0.14,237.00,VWS V14.01,2013-06-22 21:44:00,
2013-06-22 16:49:00,74.4,68.6,29.80,ENE,57,2.0,2.0,82,0.00,,FEW029,0.14,657.00,VWS V14.01,2013-06-22 21:49:00,
2013-06-22 16:54:00,75.0,69.5,29.80,ESE,115,3.0,3.0,83,0.00,,FEW029,0.14,679.00,VWS V14.01,2013-06-22 21:54:00,
2013-06-22 16:59:00,75.5,69.3,29.80,East,85,1.0,2.0,81,0.00,,FEW029,0.14,645.00,VWS V14.01,2013-06-22 21:59:00,
2013-06-22 17:04:00,75.7,68.4,29.80,NNE,16,4.0,4.0,78,0.00,,CLR,0.14,631.00,VWS V14.01,2013-06-22 22:04:00,
2013-06-22 17:09:00,75.9,69.7,29.79,ESE,107,1.0,2.0,81,0.00,,CLR,0.14,645.00,VWS V14.01,2013-06-22 22:09:00,
2013-06-22 17:14:00,76.0,68.3,29.79,ENE,71,0.0,0.0,77,0.00,,CLR,0.14,677.00,VWS V14.01,2013-06-22 22:14:00,
2013-06-22 17:19:00,76.4,68.7,29.79,ESE,103,0.0,1.0,77,0.00,,CLR,0.14,675.00,VWS V14.01,2013-06-22 22:19:00,
2013-06-22 17:24:00,76.8,69.4,29.79,NE,34,0.0,1.0,78,0.00,,CLR,0.14,599.00,VWS V14.01,2013-06-22 22:24:00,
2013-06-22 17:29:00,76.7,68.9,29.78,SSE,150,2.0,2.0,77,0.00,,CLR,0.14,584.00,VWS V14.01,2013-06-22 22:29:00,
2013-06-22 17:34:00,76.6,68.9,29.78,South,190,2.0,3.0,77,0.00,,CLR,0.14,585.00,VWS V14.01,2013-06-22 22:34:00,
2013-06-22 17:39:00,77.1,69.7,29.78,South,180,0.0,1.0,78,0.00,,CLR,0.14,621.00,VWS V14.01,2013-06-22 22:39:00,
2013-06-22 17:44:00,77.5,69.3,29.78,ENE,69,2.0,3.0,76,0.00,,CLR,0.14,577.00,VWS V14.01,2013-06-22 22:44:00,
2013-06-22 17:49:00,76.5,68.0,29.78,NE,55,0.0,1.0,75,0.00,,CLR,0.14,183.00,VWS V14.01,2013-06-22 22:49:00,
2013-06-22 17:54:00,75.9,68.2,29.78,East,96,0.0,0.0,77,0.00,,CLR,0.14,207.00,VWS V14.01,2013-06-22 22:54:00,
2013-06-22 17:59:00,75.9,68.2,29.78,ESE,104,0.0,0.0,77,0.00,,CLR,0.14,533.00,VWS V14.01,2013-06-22 22:59:00,
2013-06-22 18:04:00,76.1,67.6,29.78,SE,124,0.0,0.0,75,0.00,,SCT026,0.14,309.00,VWS V14.01,2013-06-22 23:04:00,
2013-06-22 18:09:00,76.2,67.3,29.78,ESE,123,0.0,0.0,74,0.00,,SCT026,0.14,183.00,VWS V14.01,2013-06-22 23:09:00,
2013-06-22 18:14:00,76.0,67.9,29.78,NNE,30,4.0,4.0,76,0.00,,SCT026,0.14,142.00,VWS V14.01,2013-06-22 23:14:00,
2013-06-22 18:19:00,75.6,68.3,29.78,East,84,0.0,0.0,78,0.00,,SCT026,0.14,162.00,VWS V14.01,2013-06-22 23:19:00,
2013-06-22 18:24:00,75.3,68.3,29.78,East,82,2.0,2.0,79,0.00,,SCT026,0.14,176.00,VWS V14.01,2013-06-22 23:24:00,
2013-06-22 18:29:00,75.1,68.2,29.78,East,82,0.0,1.0,79,0.00,,SCT026,0.14,97.00,VWS V14.01,2013-06-22 23:29:00,
2013-06-22 18:34:00,74.7,67.8,29.77,East,82,0.0,0.0,79,0.00,,SCT026,0.14,91.00,VWS V14.01,2013-06-22 23:34:00,
2013-06-22 18:39:00,74.4,67.8,29.77,East,82,0.0,0.0,80,0.00,,SCT026,0.14,179.00,VWS V14.01,2013-06-22 23:39:00,
2013-06-22 18:44:00,74.4,67.8,29.77,East,82,0.0,1.0,80,0.00,,SCT026,0.14,109.00,VWS V14.01,2013-06-22 23:44:00,
2013-06-22 18:49:00,74.3,67.7,29.77,ENE,78,1.0,3.0,80,0.00,,SCT026,0.14,60.00,VWS V14.01,2013-06-22 23:49:00,
2013-06-22 18:54:00,74.1,67.5,29.77,ENE,73,1.0,1.0,80,0.00,,SCT026,0.14,65.00,VWS V14.01,2013-06-22 23:54:00,
2013-06-22 18:59:00,73.9,67.7,29.77,SW,236,0.0,0.0,81,0.00,,SCT026,0.14,79.00,VWS V14.01,2013-06-22 23:59:00,
2013-06-22 19:04:00,73.6,67.8,29.77,East,81,0.0,0.0,82,0.00,,FEW038,0.14,74.00,VWS V14.01,2013-06-23 00:04:00,
2013-06-22 19:09:00,73.2,67.4,29.77,SE,128,1.0,1.0,82,0.00,,FEW038,0.14,69.00,VWS V14.01,2013-06-23 00:09:00,
2013-06-22 19:14:00,72.9,67.4,29.77,ESE,109,0.0,1.0,83,0.00,,FEW038,0.14,62.00,VWS V14.01,2013-06-23 00:14:00,
2013-06-22 19:19:00,72.7,67.6,29.77,ESE,109,0.0,0.0,84,0.00,,FEW038,0.14,56.00,VWS V14.01,2013-06-23 00:19:00,
2013-06-22 19:24:00,72.4,67.3,29.77,SE,129,0.0,1.0,84,0.00,,FEW038,0.14,53.00,VWS V14.01,2013-06-23 00:24:00,
2013-06-22 19:30:00,72.1,67.3,29.77,SE,127,0.0,0.0,85,0.00,,FEW038,0.14,51.00,VWS V14.01,2013-06-23 00:30:00,
2013-06-22 19:35:00,72.0,67.2,29.77,NE,53,1.0,1.0,85,0.00,,FEW038,0.14,51.00,VWS V14.01,2013-06-23 00:35:00,
2013-06-22 19:40:00,71.8,67.4,29.77,ENE,69,0.0,0.0,86,0.00,,FEW038,0.14,53.00,VWS V14.01,2013-06-23 00:40:00,
2013-06-22 19:45:00,71.7,67.3,29.77,East,92,1.0,1.0,86,0.00,,FEW038,0.14,58.00,VWS V14.01,2013-06-23 00:45:00,
2013-06-22 19:50:00,71.6,67.5,29.77,East,80,0.0,1.0,87,0.00,,FEW038,0.14,63.00,VWS V14.01,2013-06-23 00:50:00,
2013-06-22 19:55:00,71.5,67.4,29.77,ESE,102,0.0,1.0,87,0.00,,FEW038,0.14,69.00,VWS V14.01,2013-06-23 00:55:00,
2013-06-22 20:00:00,71.4,67.7,29.77,NE,34,0.0,0.0,88,0.00,,FEW038,0.14,79.00,VWS V14.01,2013-06-23 01:00:00,
2013-06-22 20:05:00,71.4,67.7,29.77,ESE,121,1.0,3.0,88,0.00,,CLR,0.14,69.00,VWS V14.01,2013-06-23 01:05:00,
2013-06-22 20:10:00,71.2,67.5,29.77,SE,128,1.0,2.0,88,0.00,,CLR,0.14,67.00,VWS V14.01,2013-06-23 01:10:00,
2013-06-22 20:15:00,71.0,67.3,29.76,East,96,0.0,1.0,88,0.00,,CLR,0.14,54.00,VWS V14.01,2013-06-23 01:15:00,
2013-06-22 20:20:00,70.8,67.4,29.76,ENE,65,0.0,3.0,89,0.00,,CLR,0.14,47.00,VWS V14.01,2013-06-23 01:20:00,
2013-06-22 20:25:00,70.7,67.3,29.76,ENE,63,0.0,0.0,89,0.00,,CLR,0.14,42.00,VWS V14.01,2013-06-23 01:25:00,
2013-06-22 20:30:00,70.4,67.0,29.76,NNE,29,0.0,0.0,89,0.00,,CLR,0.14,35.00,VWS V14.01,2013-06-23 01:30:00,
2013-06-22 20:35:00,70.2,66.8,29.76,NE,52,1.0,2.0,89,0.00,,CLR,0.14,30.00,VWS V14.01,2013-06-23 01:35:00,
2013-06-22 20:40:00,70.0,66.9,29.75,NE,46,0.0,0.0,90,0.00,,CLR,0.14,25.00,VWS V14.01,2013-06-23 01:40:00,
2013-06-22 20:45:00,69.8,66.7,29.75,North,355,0.0,0.0,90,0.00,,CLR,0.14,16.00,VWS V14.01,2013-06-23 01:45:00,
2013-06-22 20:50:00,69.6,66.5,29.76,East,90,0.0,0.0,90,0.00,,CLR,0.14,9.00,VWS V14.01,2013-06-23 01:50:00,
2013-06-22 20:55:00,69.4,66.7,29.75,East,80,3.0,3.0,91,0.00,,CLR,0.14,5.00,VWS V14.01,2013-06-23 01:55:00,
2013-06-22 21:00:00,69.1,66.4,29.75,East,98,0.0,0.0,91,0.00,,CLR,0.14,0.00,VWS V14.01,2013-06-23 02:00:00,
2013-06-22 21:05:00,68.9,66.2,29.75,ENE,78,0.0,0.0,91,0.00,,CLR,0.14,0.00,VWS V14.01,2013-06-23 02:05:00,
2013-06-22 21:10:00,68.7,66.3,29.75,East,84,0.0,0.0,92,0.00,,CLR,0.14,0.00,VWS V14.01,2013-06-23 02:10:00,
2013-06-22 21:15:00,68.4,65.7,29.76,East,84,0.0,0.0,91,0.00,,CLR,0.14,0.00,VWS V14.01,2013-06-23 02:15:00,
2013-06-22 21:20:00,68.3,65.9,29.75,ENE,64,0.0,0.0,92,0.00,,CLR,0.14,0.00,VWS V14.01,2013-06-23 02:20:00,
2013-06-22 21:25:00,68.2,66.1,29.75,NE,35,1.0,1.0,93,0.00,,CLR,0.14,0.00,VWS V14.01,2013-06-23 02:25:00,
2013-06-22 21:30:00,68.0,65.9,29.75,NE,56,1.0,1.0,93,0.00,,CLR,0.14,0.00,VWS V14.01,2013-06-23 02:30:00,
2013-06-22 21:35:00,67.8,65.7,29.76,NE,38,1.0,2.0,93,0.00,,CLR,0.14,0.00,VWS V14.01,2013-06-23 02:35:00,
2013-06-22 21:40:00,67.7,65.6,29.77,NE,52,0.0,0.0,93,0.00,,CLR,0.14,0.00,VWS V14.01,2013-06-23 02:40:00,
2013-06-22 21:45:00,67.5,65.4,29.77,NE,52,0.0,1.0,93,0.00,,CLR,0.14,0.00,VWS V14.01,2013-06-23 02:45:00,
2013-06-22 21:50:00,67.4,65.3,29.77,ENE,67,0.0,0.0,93,0.00,,CLR,0.14,0.00,VWS V14.01,2013-06-23 02:50:00,
2013-06-22 21:55:00,67.3,65.5,29.77,East,84,0.0,0.0,94,0.00,,CLR,0.14,0.00,VWS V14.01,2013-06-23 02:55:00,
2013-06-22 22:00:00,67.1,65.3,29.77,East,92,0.0,0.0,94,0.00,,CLR,0.14,0.00,VWS V14.01,2013-06-23 03:00:00,
2013-06-22 22:05:00,67.0,65.2,29.77,NE,45,0.0,0.0,94,0.00,,CLR,0.14,0.00,VWS V14.01,2013-06-23 03:05:00,
2013-06-22 22:10:00,66.9,65.1,29.77,East,88,0.0,0.0,94,0.00,,CLR,0.14,0.00,VWS V14.01,2013-06-23 03:10:00,
2013-06-22 22:15:00,66.7,64.9,29.77,ENE,61,1.0,3.0,94,0.00,,CLR,0.14,0.00,VWS V14.01,2013-06-23 03:15:00,
2013-06-22 22:20:00,66.6,64.8,29.77,ENE,72,0.0,0.0,94,0.00,,CLR,0.14,0.00,VWS V14.01,2013-06-23 03:20:00,
2013-06-22 22:25:00,66.5,64.7,29.77,ENE,57,1.0,1.0,94,0.00,,CLR,0.14,0.00,VWS V14.01,2013-06-23 03:25:00,
2013-06-22 22:30:00,66.4,64.9,29.78,ENE,70,1.0,1.0,95,0.00,,CLR,0.14,0.00,VWS V14.01,2013-06-23 03:30:00,
2013-06-22 22:35:00,66.3,64.8,29.78,ENE,70,0.0,0.0,95,0.00,,CLR,0.14,0.00,VWS V14.01,2013-06-23 03:35:00,
2013-06-22 22:40:00,66.1,64.6,29.78,NE,44,0.0,0.0,95,0.00,,CLR,0.14,0.00,VWS V14.01,2013-06-23 03:40:00,
2013-06-22 22:45:00,66.1,64.6,29.77,ENE,59,1.0,2.0,95,0.00,,CLR,0.14,0.00,VWS V14.01,2013-06-23 03:45:00,
2013-06-22 22:51:00,66.0,64.5,29.77,NNE,32,1.0,3.0,95,0.00,,CLR,0.14,0.00,VWS V14.01,2013-06-23 03:51:00,
2013-06-22 22:56:00,65.9,64.4,29.77,NE,42,1.0,2.0,95,0.00,,CLR,0.14,0.00,VWS V14.01,2013-06-23 03:56:00,
2013-06-22 23:01:00,65.7,64.2,29.76,NE,51,2.0,2.0,95,0.00,,CLR,0.14,0.00,VWS V14.01,2013-06-23 04:01:00,
2013-06-22 23:06:00,65.6,64.1,29.76,ENE,61,2.0,2.0,95,0.00,,CLR,0.14,0.00,VWS V14.01,2013-06-23 04:06:00,
2013-06-22 23:11:00,65.5,64.0,29.76,NNE,25,1.0,3.0,95,0.00,,CLR,0.14,0.00,VWS V14.01,2013-06-23 04:11:00,
2013-06-22 23:17:00,65.3,63.8,29.76,NE,49,1.0,2.0,95,0.00,,CLR,0.14,0.00,VWS V14.01,2013-06-23 04:17:00,
2013-06-22 23:22:00,65.2,63.7,29.76,ENE,64,0.0,0.0,95,0.00,,CLR,0.14,0.00,VWS V14.01,2013-06-23 04:22:00,
2013-06-22 23:27:00,65.0,63.5,29.75,NNE,17,0.0,1.0,95,0.00,,CLR,0.14,0.00,VWS V14.01,2013-06-23 04:27:00,
2013-06-22 23:32:00,64.9,63.4,29.75,ENE,68,1.0,1.0,95,0.00,,CLR,0.14,0.00,VWS V14.01,2013-06-23 04:32:00,
2013-06-22 23:37:00,64.7,63.2,29.74,NE,42,2.0,2.0,95,0.00,,CLR,0.14,0.00,VWS V14.01,2013-06-23 04:37:00,
2013-06-22 23:42:00,64.5,63.0,29.75,ENE,68,1.0,1.0,95,0.00,,CLR,0.14,0.00,VWS V14.01,2013-06-23 04:42:00,
2013-06-22 23:47:00,64.4,63.2,29.75,NE,55,1.0,2.0,96,0.00,,CLR,0.14,0.00,VWS V14.01,2013-06-23 04:47:00,
2013-06-22 23:52:00,64.2,62.7,29.74,ENE,66,0.0,0.0,95,0.00,,CLR,0.14,0.00,VWS V14.01,2013-06-23 04:52:00,
2013-06-22 23:57:00,64.1,62.6,29.73,ENE,57,1.0,3.0,95,0.00,,CLR,0.14,0.00,VWS V14.01,2013-06-23 04:57:00,